Home   Weather   Owen Sound   Past weeks

Flag for Canada Past Weather in Owen Sound, Ontario, Canada — Yesterday and Last 2 Weeks

34 °F

Passing clouds.

Feels Like: 29 °F
Forecast: 31 / 47 °F
Wind: 6 mph from Northwest

Location: Wiarton

Current Time: Oct 28, 2016 at 6:14:05 AM

Latest Report: Oct 28, 2016 at 5:00 AM

Visibility: 15 mi

Pressure: 30.25 "Hg

Humidity: 87%

Dew Point: 30 °F

Location of Owen SoundLocation

Past Weather in Owen Sound — Graph


Owen Sound Temperature Yesterday

Maximum temperature yesterday: 37 °F (at 12:00 AM)
Minimum temperature yesterday: 32 °F (at 7:00 AM)
Average temperature yesterday: 35 °F

High & Low Weather Summary for the Past Weeks

High73 °F (Oct 18, 1:00 PM)100% (Oct 13, 10:00 PM)30.54 "Hg (Oct 13, 10:00 PM)
Low32 °F (Oct 27, 7:00 AM)52% (Oct 19, 3:00 PM)29.45 "Hg (Oct 18, 11:00 AM)
Average49 °F78%30.05 "Hg
* Reported Oct 13 5:00 AM — Oct 28 5:00 AM, Owen Sound, Weather by CustomWeather, © 2016

Note: Actual official high and low records may vary slightly from our data, if they occured in-between our weather recording intervals... More about our weather records


Owen Sound Weather History for the Previous 24 Hours

Scroll right to see more
Time TempWeatherWind HumidityBarometerVisibility
5:00 AM
Fri, Oct 28
34 °FPassing clouds.6 mph87%30.25 "Hg15 mi
4:00 AM34 °FPassing clouds.7 mph87%30.24 "Hg15 mi
3:00 AM34 °FPassing clouds.3 mph93%30.23 "Hg15 mi
2:00 AM34 °FPassing clouds.3 mph93%30.22 "Hg10 mi
1:00 AM36 °FLight snow. Overcast.5 mph93%30.22 "Hg15 mi
12:00 AM36 °FMostly cloudy.3 mph93%30.21 "Hg15 mi
11:00 PM
Thu, Oct 27
36 °FLight snow. Overcast.2 mph93%30.20 "Hg8 mi
10:00 PM34 °FLight snow. Fog.5 mph100%30.20 "Hg4 mi
9:00 PM36 °FLight snow. Fog.6 mph93%30.19 "Hg4 mi
8:00 PM36 °FSnow flurries. Fog.5 mph93%30.18 "Hg4 mi
7:00 PM34 °FSnow flurries. Fog.9 mph100%30.16 "Hg4 mi
6:00 PM34 °FSnow flurries. Fog.12 mph93%30.16 "Hg4 mi
5:00 PM36 °FLight rain. Fog.10 mph93%30.14 "Hg4 mi
4:45 PM36 °FLight rain. Fog.12 mph93%30.13 "Hg4 mi
4:00 PM34 °FLight rain. Fog.12 mph100%30.11 "Hg4 mi
3:00 PM36 °FLight rain. Fog.15 mph93%30.09 "Hg4 mi
2:00 PM34 °FLight snow. Fog.14 mph100%30.11 "Hg4 mi
1:00 PM34 °FLight snow. Fog.15 mph93%30.13 "Hg2 mi
12:00 PM34 °FLight snow. Fog.18 mph93%30.14 "Hg2 mi
11:00 AM34 °FLight snow. Fog.15 mph93%30.15 "Hg1 mi
10:00 AM34 °FLight snow. Fog.17 mph93%30.16 "Hg1 mi
9:00 AM34 °FLight snow. Fog.15 mph93%30.17 "Hg1 mi
8:00 AM34 °FLight snow. Overcast.17 mph93%30.18 "Hg3 mi
7:00 AM32 °FSnow flurries. Dense fog.13 mph100%30.18 "Hg1 mi
6:00 AM34 °FLight snow. Overcast.16 mph93%30.19 "Hg4 mi
Weather by CustomWeather, © 2016

See weather overviewHow to use our weather pages